Regional Weather Roundup
Issued by NWS

Home | Current Version | Previous Version | Text Only | Print | Product List | Glossary On
Versions: 1 2 3 4 5 6 7 8 9 10 11 12 13 14 15 16 17 18 19 20 21 22 23 24 25 26 27 28 29 30 31 32 33 34 35 36 37 38 39 40 41 42 43 44 45 46 47 48 49 50
000
ASUS43 KTOP 221759
RWRKS

WEATHER ROUNDUP FOR KANSAS
NATIONAL WEATHER SERVICE GOODLAND KS
100 PM CDT TUE APR 22 2014

NOTE:  "FAIR" INDICATES FEW OR NO CLOUDS BELOW 12,000 FEET WITH NO
SIGNIFICANT WEATHER AND/OR OBSTRUCTIONS TO VISIBILITY.

KSZ001>006-013>018-027>032-041>047-221900-
NORTHWEST KANSAS

CITY           SKY/WX    TMP DP  RH WIND       PRES   REMARKS
GOODLAND       SUNNY     71  34  25 S33G43    29.98F
6HR MIN TEMP:  42; 6HR MAX TEMP:  71;

HAYS           CLOUDY    72  32  23 S20G28    30.08F
HILL CITY      CLOUDY    68  31  25 S21G28    30.06F
6HR MIN TEMP:  39; 6HR MAX TEMP:  68;

RUSSELL        FAIR      73  30  20 S18G26    30.07F
6HR MIN TEMP:  37; 6HR MAX TEMP:  73;

$$

KSZ061>065-074>080-084>089-221900-
SOUTHWEST KANSAS

CITY           SKY/WX    TMP DP  RH WIND       PRES   REMARKS
DODGE CITY     PTSUNNY   67  31  26 S21       30.10F
6HR MIN TEMP:  43; 6HR MAX TEMP:  68;

ELKHART          N/A     74  44  34 S20         N/A
GARDEN CITY    FAIR      71  30  21 S22G36    30.06F
6HR MIN TEMP:  44; 6HR MAX TEMP:  71;

GREAT BEND     FAIR      73  30  20 S17G25    30.08F
LIBERAL        FAIR      73  37  27 S17G26    30.10F
$$

KSZ066>073-081>083-090>101-221900-
SOUTHEAST KANSAS

CITY           SKY/WX    TMP DP  RH WIND       PRES   REMARKS
CHANUTE        FAIR      67  34  29 NE6       30.11F
6HR MIN TEMP:  47; 6HR MAX TEMP:  68;

COFFEYVILLE    FAIR      69  35  28 VRB6      30.10F
6HR MIN TEMP:  48; 6HR MAX TEMP:  69;

HUTCHINSON     FAIR      73  28  18 SE14      30.11F
6HR MIN TEMP:  47; 6HR MAX TEMP:  74;

NEWTON         FAIR      72  30  21 S5        30.15F
PARSONS        FAIR      69  34  27 N9        30.11F
6HR MIN TEMP:  50; 6HR MAX TEMP:  70;

WICHITA INTL   FAIR      72  32  23 VRB7G16   30.11F
6HR MIN TEMP:  51; 6HR MAX TEMP:  72;

WICHITA JABRA  FAIR      71  30  21 E8        30.11F
6HR MIN TEMP:  45; 6HR MAX TEMP:  71;

WINFIELD       FAIR      71  30  21 E5        30.11F
6HR MIN TEMP:  41; 6HR MAX TEMP:  72;

$$

KSZ007>012-019>026-033>040-048>060-102>105-221900-
NORTHEAST KANSAS

CITY           SKY/WX    TMP DP  RH WIND       PRES   REMARKS
CONCORDIA      FAIR      68  29  23 SE10G21   30.10F
6HR MIN TEMP:  39; 6HR MAX TEMP:  69;

EMPORIA        FAIR      65  34  31 E10       30.12F
6HR MIN TEMP:  45; 6HR MAX TEMP:  65;

LAWRENCE       FAIR      65  31  28 NE9       30.12F
6HR MIN TEMP:  38; 6HR MAX TEMP:  66;

MANHATTAN      FAIR      66  33  29 NE7       30.11F
6HR MIN TEMP:  45; 6HR MAX TEMP:  66;

OLATHE IND     FAIR      64  31  28 N13       30.12F
6HR MIN TEMP:  41; 6HR MAX TEMP:  64;

OLATHE EXE     FAIR      63  29  27 N3        30.11F
6HR MIN TEMP:  48; 6HR MAX TEMP:  63;

SALINA         FAIR      72  32  23 S8        30.11F
6HR MIN TEMP:  40; 6HR MAX TEMP:  72;

TOPEKA BILLARD FAIR      66  34  30 CALM      30.12F
6HR MIN TEMP:  45; 6HR MAX TEMP:  66;

TOPEKA FORBES  FAIR      64  32  30 W5        30.12F
6HR MIN TEMP:  45; 6HR MAX TEMP:  66;

$$



USA.gov is the U.S. government's official web portal to all federal, state and local government web resources and services.